TimeEST,TemperatureF,Dew PointF,Humidity,Sea Level PressureIn,VisibilityMPH,Wind Direction,Wind SpeedMPH,Gust SpeedMPH,PrecipitationIn,Events,Conditions,WindDirDegrees,DateUTC
12:54 AM,36.0,27.0,70,30.59,10.0,NE,8.1,-,N/A,,Clear,40,2013-11-30 05:54:00
1:54 AM,35.1,27.0,72,30.59,10.0,NE,8.1,-,N/A,,Clear,50,2013-11-30 06:54:00
2:54 AM,34.0,26.1,73,30.58,10.0,NNE,10.4,-,N/A,,Clear,30,2013-11-30 07:54:00
3:54 AM,33.1,26.1,75,30.58,10.0,NNE,8.1,-,N/A,,Clear,30,2013-11-30 08:54:00
4:54 AM,33.1,25.0,72,30.58,10.0,NNE,8.1,-,N/A,,Clear,20,2013-11-30 09:54:00
5:54 AM,33.1,25.0,72,30.58,10.0,NNE,9.2,-,N/A,,Clear,20,2013-11-30 10:54:00
6:54 AM,32.0,25.0,75,30.58,10.0,NNE,8.1,-,N/A,,Clear,20,2013-11-30 11:54:00
7:54 AM,34.0,26.1,73,30.59,9.0,NNE,10.4,-,N/A,,Clear,20,2013-11-30 12:54:00
8:54 AM,37.0,27.0,67,30.59,10.0,North,-9999.0,-,N/A,,Clear,0,2013-11-30 13:54:00
9:54 AM,41.0,28.9,62,30.59,10.0,NE,12.7,-,N/A,,Clear,40,2013-11-30 14:54:00
10:54 AM,45.0,32.0,60,30.57,6.0,NE,10.4,-,N/A,,Haze,50,2013-11-30 15:54:00
11:54 AM,48.0,34.0,58,30.54,10.0,NE,11.5,-,N/A,,Clear,40,2013-11-30 16:54:00
12:54 PM,51.1,34.0,52,30.51,10.0,North,8.1,-,N/A,,Clear,10,2013-11-30 17:54:00
1:54 PM,52.0,34.0,50,30.47,10.0,NNE,10.4,-,N/A,,Clear,20,2013-11-30 18:54:00
2:54 PM,53.1,35.1,50,30.44,10.0,North,10.4,-,N/A,,Clear,10,2013-11-30 19:54:00
3:54 PM,52.0,35.1,53,30.43,10.0,NNE,9.2,-,N/A,,Clear,30,2013-11-30 20:54:00
4:54 PM,48.9,36.0,61,30.44,10.0,North,6.9,-,N/A,,Mostly Cloudy,10,2013-11-30 21:54:00
5:54 PM,48.0,36.0,63,30.43,10.0,NNE,4.6,-,N/A,,Mostly Cloudy,20,2013-11-30 22:54:00
6:54 PM,48.0,37.0,66,30.43,10.0,NNE,4.6,-,N/A,,Overcast,30,2013-11-30 23:54:00
7:54 PM,46.0,37.0,71,30.40,10.0,NE,5.8,-,N/A,,Mostly Cloudy,40,2013-12-01 00:54:00
8:54 PM,46.9,37.9,71,30.39,10.0,NNE,4.6,-,N/A,,Overcast,30,2013-12-01 01:54:00
9:54 PM,46.0,37.9,73,30.38,10.0,North,3.5,-,N/A,,Overcast,10,2013-12-01 02:54:00
10:54 PM,44.1,37.0,76,30.37,9.0,North,6.9,-,N/A,,Mostly Cloudy,10,2013-12-01 03:54:00
11:54 PM,44.1,37.0,76,30.36,9.0,North,5.8,-,N/A,,Mostly Cloudy,10,2013-12-01 04:54:00